Weather History for Marshfield, WI

Change the Weather History Date:

Sunday, October 17, 2010

  Actual Average Record
Temperature  
Mean Temperature 47 °F -  
Max Temperature 57 °F 57 °F 81 °F (1947)
Min Temperature 37 °F 35 °F 15 °F (1952)
Degree Days  
Heating Degree Days 18    
Moisture  
Dew Point 30 °F    
Average Humidity 52    
Maximum Humidity 70    
Minimum Humidity 32    
Precipitation  
Precipitation 0.00 in - - ()
Sea Level Pressure  
Sea Level Pressure 30.12 in    
Wind  
Wind Speed 7 mph (WNW)    
Max Wind Speed 12 mph    
Max Gust Speed -    
Visibility 10 miles    
Events      
Averages and records for this station are not official NWS values.
T = Trace of Precipitation, MM = Missing Value Source: NWS Daily Summary

Daily Weather History Graph

Daily Weather History Graph

Search for Another Location

Airport:

Trip Planner

Search our weather history database for the weather conditions in past years. The results will help you decide how hot, cold, wet, or windy it might be!

Date:

Astronomy

Oct. 17, 2010 Rise Set
Actual Time 7:18 AM CDT 6:12 PM CDT
Civil Twilight 6:49 AM CDT 6:42 PM CDT
Nautical Twilight 6:15 AM CDT 7:16 PM CDT
Astronomical Twilight 5:41 AM CDT 7:49 PM CDT
Moon 3:43 PM CDT (10/17) 1:57 AM CDT (10/17)
Length of Visible Light 11h 53m
Length of Day
10h 54m
Waxing Gibbous, 76% of the Moon is Illuminated
Oct 17
Waxing Gibbous
Oct 22
Full
Oct 30
Last Quarter
Nov 5
New
Nov 13
First Quarter

Hourly Weather History & Observations

Time (CDT) Temp. Windchill Dew Point Humidity Pressure Visibility Wind Dir Wind Speed Gust Speed Precip Events Conditions
12:54 AM 42.1 °F 37.7 °F 28.9 °F 60% 30.10 in 10.0 mi West 6.9 mph - N/A   Clear
1:54 AM 42.1 °F 38.4 °F 28.9 °F 60% 30.10 in 10.0 mi WNW 5.8 mph - N/A   Clear
2:54 AM 39.9 °F 35.8 °F 28.9 °F 65% 30.11 in 10.0 mi NW 5.8 mph - N/A   Clear
4:54 AM 37.0 °F 31.6 °F 28.0 °F 70% 30.12 in 10.0 mi WNW 6.9 mph - N/A   Clear
5:54 AM 37.0 °F 33.3 °F 28.0 °F 70% 30.14 in 10.0 mi West 4.6 mph - N/A   Clear
6:54 AM 37.9 °F 33.5 °F 28.9 °F 70% 30.15 in 10.0 mi WNW 5.8 mph - N/A   Clear
7:54 AM 39.0 °F 34.8 °F 30.0 °F 70% 30.16 in 10.0 mi WNW 5.8 mph - N/A   Clear
8:54 AM 42.1 °F 39.2 °F 32.0 °F 67% 30.17 in 10.0 mi WNW 4.6 mph - N/A   Clear
9:54 AM 46.9 °F - 33.1 °F 59% 30.18 in 10.0 mi NW 8.1 mph - N/A   Clear
10:54 AM 50.0 °F - 33.1 °F 52% 30.18 in 10.0 mi West 5.8 mph - N/A   Clear
11:54 AM 54.0 °F - 30.9 °F 41% 30.17 in 10.0 mi WNW 11.5 mph - N/A   Clear
12:54 PM 55.9 °F - 30.0 °F 37% 30.14 in 10.0 mi NW 8.1 mph - N/A   Clear
1:54 PM 57.0 °F - 28.0 °F 33% 30.12 in 10.0 mi NW 11.5 mph - N/A   Clear
2:54 PM 57.9 °F - 28.0 °F 32% 30.10 in 10.0 mi WNW 10.4 mph - N/A   Clear
3:54 PM 55.9 °F - 27.0 °F 33% 30.10 in 10.0 mi NW 10.4 mph - N/A   Clear
4:54 PM 55.0 °F - 28.0 °F 35% 30.09 in 10.0 mi NW 10.4 mph - N/A   Clear
5:54 PM 53.1 °F - 28.9 °F 40% 30.09 in 10.0 mi WNW 6.9 mph - N/A   Partly Cloudy
6:54 PM 51.1 °F - 28.9 °F 43% 30.08 in 10.0 mi NW 6.9 mph - N/A   Overcast
7:54 PM 48.9 °F - 30.0 °F 48% 30.09 in 10.0 mi WNW 4.6 mph - N/A   Overcast
8:54 PM 48.0 °F - 30.0 °F 50% 30.10 in 10.0 mi West 3.5 mph - N/A   Mostly Cloudy
9:54 PM 46.9 °F - 30.9 °F 54% 30.09 in 10.0 mi WNW 4.6 mph - N/A   Mostly Cloudy
10:54 PM 46.9 °F - 30.9 °F 54% 30.10 in 10.0 mi WNW 3.5 mph - N/A   Overcast
11:54 PM 46.0 °F 43.9 °F 32.0 °F 58% 30.10 in 10.0 mi West 4.6 mph - N/A   Overcast